Погода в Фыркале

Россия / Республика Хакасия     54°37′58″N   89°48′39″E
темп.,
°C
ветер,
м/с
пор.,
м/с
влажн.,
%
обл.,
%
осадки,
мм/ч
давл.,
гПа
погр.,
м
27 июля, вт
вт2701:00+17з228877 0.9 100212
04:00+17зюз118999 0.0 100212
07:00+18зсз1186100 0.0 1004111
10:00+20зсз1274100 0.1 1004605
13:00+21сз347237 2.1 1005893
16:00+21з4553100 0.6 10051237
19:00+19сз5857100 0.6 1007515
22:00+12с3382100 0.0 100939
28 июля, ср
ср2801:00+11с1282100 0.0 101019
04:00+10ссз1190100 0.0 101017
07:00+11ссз1287100 0.0 1011200
10:00+14с2368100 0.0 1010846
13:00+17св2256100 0.1 10101436
16:00+18св335217 0.0 10091201
19:00+18всв335792 0.0 10091021
22:00+15в126899 0.0 101025
29 июля, чт
чт2901:00+14вюв0072100 0.0 101110
04:00+13ю1175100 0.0 101011
07:00+12ююв118799 0.4 101113
10:00+16вюв346910 0.1 1010610
13:00+19юв335465 0.3 10091312
16:00+21вюв324780 0.1 10081811
19:00+18вюв2366100 0.2 100979
22:00+15ссз227618 0.1 101011
30 июля, пт
пт3001:00+12ссз1182100 0.1 101010
04:00+11з1187100 0.0 101110
07:00+13зсз0180100 0.0 101162
10:00+17зюз116894 0.0 1011453
13:00+20ссз22545 1.4 10111325
16:00+21ссв434995 0.1 10121391
19:00+17сз357325 0.6 1014211
22:00+13зсз118513 0.3 101510
31 июля, сб
сб3101:00+12зсз118753 0.3 101611
04:00+11з118919 0.0 101711
07:00+12зюз11864 0.0 101768
10:00+18ююз01675 0.0 1016509
13:00+22юв22471 0.0 10151517
16:00+23вюв22401 0.0 10131693
19:00+22юв235177 0.0 1014140
22:00+18всв115799 0.0 101517